Regional Weather Roundup
Issued by NWS

Home | Current Version | Previous Version | Text Only | Print | Product List | Glossary Off
Versions: 1 2 3 4 5 6 7 8 9 10 11 12 13 14 15 16 17 18 19 20 21 22 23 24 25 26 27 28 29 30 31 32 33 34 35 36 37 38 39 40 41 42 43 44 45 46 47 48 49 50

000
ASUS45 KBOU 241107
RWRCO

WEATHER ROUNDUP FOR COLORADO
NATIONAL WEATHER SERVICE DENVER/BOULDER CO
400 AM MST WED DEC 24 2014

NOTE: "FAIR" INDICATES FEW OR NO CLOUDS BELOW 12000 FEET WITH NO
SIGNIFICANT WEATHER AND/OR OBSTRUCTIONS TO VISIBILITY.

COZ001>005-013-030-031-241200-
...NORTHWEST COLORADO...

CITY           SKY/WX    TMP DP  RH WIND       PRES   REMARKS
CRAIG          FAIR       1  -5  75 CALM      30.21F
HAYDEN         FAIR       9   3  78 E9        30.18F WCI  -5
MEEKER         FAIR       5  -1  76 E7        30.21F WCI  -7
MOUNT WERNER   NOT AVBL
STEAMBOAT SPGS FAIR       8   5  89 E5        30.18F WCI  -1
WALDEN         FAIR       1  -6  71 SE13      30.10F WCI -16
$$

COZ006>008-011-241200-
...WEST CENTRAL VALLEYS...

CITY           SKY/WX    TMP DP  RH WIND       PRES   REMARKS
GRAND JUNCTION FAIR      19  13  77 S7        30.25F WCI  10
MONTROSE       FAIR      14   8  77 S6        30.27F WCI   5
EAGLE          FAIR       0  -6  78 NE5       30.31R WCI -10
RIFLE          FAIR      12   6  77 SE7       30.28F WCI   1
DELTA          FAIR      17   9  70 E7        30.28F WCI   7
NUCLA          FAIR      18   9  68 E8        30.25F WCI   7
$$

COZ017>023-064>068-241200-
...SOUTHWEST COLORADO...

CITY           SKY/WX    TMP DP  RH WIND       PRES   REMARKS
DURANGO        FAIR      11   5  77 CALM      30.13S
CORTEZ         FAIR      17   9  70 NE6       30.16S WCI   9
PAGOSA SPRINGS FAIR       6  -3  68 CALM      30.11F
TELLURIDE      FAIR       6  -2  71 SE3       30.14F
WOLF CREEK PAS FAIR      10 -18  26 MISG      30.03S
$$

COZ009-010-012-014-032>034-037-058>063-241200-
...CENTRAL COLORADO...

CITY           SKY/WX    TMP DP  RH WIND       PRES   REMARKS
ASPEN          FAIR      -2  -7  79 CALM      30.19S
BUENA VISTA    FAIR      14  -1  49 NW20G31   30.02F WCI  -3
COPPER MTN     FAIR       5  -2  72 W18G25    30.02S WCI -15
BERTHOUD PASS  NOT AVBL
COTTONWOOD PAS FAIR      19  -6  32 S5G16     29.98F WCI  13
GUNNISON       FAIR     -13 -27  48 CALM      30.22F
KREMMLING      FAIR       1  -2  85 CALM      30.22R
LEADVILLE      FAIR       1  -7  68 N16       30.05S WCI -19
MONARCH PASS   FAIR       5  -4  66 MISG      30.09F
SALIDA         FAIR      15  -1  49 NW7       30.13F WCI   5
SUNLIGHT         N/A    N/A N/A N/A MISG      30.11S
WILKERSON PASS FAIR      12   3  67 N15G24    29.93S WCI  -4
$$

COZ069>075-241200-
...SAN LUIS VALLEY/SANGRE DE CRISTO MOUNTAINS...

CITY           SKY/WX    TMP DP  RH WIND       PRES   REMARKS
ALAMOSA        FAIR       0  -6  76 S6        30.10F WCI -12
LA VETA PASS   FAIR       3  -6  66 SW9G16    29.92F WCI -11
SAGUACHE       FAIR      14   1  57 NW23      30.08F WCI  -5
$$

COZ035-036-038>040-241200-
...NORTHERN COLORADO FRONT RANGE...

CITY           SKY/WX    TMP DP  RH WIND       PRES   REMARKS
DENVER INTL AP FAIR      21   5  50 S13       29.95F WCI   9
DMNS CITY PARK   N/A     21   2  44 S6        29.96F WCI  13
AURORA         PTCLDY    19   3  51 S13       29.96F WCI   6
FRONT RANGE AP FAIR      19  10  68 S14       29.96F WCI   6
ERIE MUNI ARPT   N/A     11   7  81 CALM      29.96S
BOULDER MUN AP FAIR      19   9  63 CALM      29.95F
CENTENNIAL     FAIR      15   4  61 S10       29.96F WCI   2
BROOMFIELD     FAIR      21  10  63 CALM      29.94F
FORT COLLINS   FAIR      12   5  73 N7        29.98F WCI   2
LONGMONT       FAIR      15   7  72 CALM      29.98F
$$

COZ041-046-047-076>085-087-088-241200-
...PIKES PEAK/PALMER DIVIDE AND SOUTHERN FOOTHILLS...

CITY           SKY/WX    TMP DP  RH WIND       PRES   REMARKS
COLO. SPRINGS  FAIR      10   1  67 N7        30.01F WCI  -1
A. F. ACADEMY  FAIR       3  -4  73 N10       29.98F WCI -13
ELLICOTT       NOT AVBL
FALCON         FAIR      12  -1  57 W10       29.98F WCI  -2
FORT CARSON    FAIR      12   3  67 NW10      30.00F WCI  -1
LIMON          FAIR      12   6  77 N3        29.99F
MONUMENT HILL  FAIR      10  -2  56 S10       29.94F WCI  -3
TRINIDAD         N/A    N/A N/A N/A MISG      30.04F
$$

COZ042>045-048>051-090-091-241200-
...NORTHEAST COLORADO...

CITY           SKY/WX    TMP DP  RH WIND       PRES   REMARKS
GREELEY ARPT   FAIR       9   0  66 CALM      29.97F
AKRON          FAIR      16   9  74 W13       29.97F WCI   2
BURLINGTON     FAIR      15   9  76 W14       30.00F WCI   0
WRAY           FAIR      11   9  89 SW7       30.01F WCI   1
STERLING       FAIR      10   7  85 SW3       29.99F
HOLYOKE        FAIR      19  14  79 W8        29.99F WCI   9
FORT MORGAN    FAIR      13   6  75 W10       29.99F WCI   0
$$

COZ086-089-092>099-241200-
...SOUTHEAST COLORADO...

CITY           SKY/WX    TMP DP  RH WIND       PRES   REMARKS
PUEBLO         FAIR      11   6  81 CALM      30.05F
LA JUNTA       FAIR      18  10  71 W14       30.06F WCI   4
LAMAR          FAIR      19  13  77 W10       30.05F WCI   7
SPRINGFIELD      N/A     15  10  80 W9        30.04F WCI   3
$$



USA.gov is the U.S. government's official web portal to all federal, state and local government web resources and services.